パロマー彗星

505P/Palomar (2017)

English version
Home page
Updated on August 15, 2025

---------------------------------------------------------------------

・ プロフィール

・ 写真集

・ 軌道要素

                    Epoch = 2017 Oct. 14.0 TT
     T = 2017 Sept.26.40015 TT        Peri. = 144.02101
     e = 0.3127898                    Node  = 111.95066 2000.0
     q = 2.8160651 AU                 Incl. =  11.39995
       a =  4.0978221 AU   n = 0.11881586   P =   8.30 years

・ 光度変化

        H = 15.5  G = 0.15

---------------------------------------------------------------------

軌道要素は、CBET 5543に掲載されたものです。
光度グラフはComet for Windowsで作成したものです。

---------------------------------------------------------------------

Copyright(C) Seiichi Yoshida (comet@aerith.net). All rights reserved.